Location: Novokuznetsk
(53.7500°N, 87.1000°E)
Time: 13:36:38
(UTC+06:00)

ISS - Pass Details

Date: 15 July 2018
Orbit: 402 x 408 km, 51.6° (Epoch: 23 July)

Event Time Altitude Azimuth Distance (km) Brightness Sun altitude
Exits shadow 01:11:41 27° 209° (SSW) 812 -2.9 -13.8°
Maximum altitude 01:12:53 39° 161° (SSE) 626 -3.3 -13.7°
Drops below altitude 10° 01:16:00 10° 91° (E) 1,473 -0.8 -13.6°
Sets 01:18:09 0° 84° (E) 2,337 0.3 -13.5°
